N747RX KEGE-KGCN

Flight info

Callsign N747RX
Flight time 0h 51m
Altitude 47000
Route BEVVR1 SPRKT JNC KUHVC TOADD
Aircraft C750/M-SBDE3FGHRWXY/S

Departure

Time 2026-05-08 15:18
Airport Eagle County Regional Airport (KEGE)

Arrival

Time 2026-05-08 16:09
Airport Grand Canyon National Park Airport (KGCN)
Time Latitude Longitude Altitude Speed Heading
2026-05-08 15:02 39.64156 -106.90796 6547 ft 0 kts 82°
2026-05-08 15:13 39.64158 -106.90790 6547 ft 1 kts 68°
2026-05-08 15:13 39.64164 -106.90782 6547 ft 0 kts 30°
2026-05-08 15:14 39.64169 -106.90778 6547 ft 3 kts 30°
2026-05-08 15:14 39.64200 -106.90734 6547 ft 8 kts 79°
2026-05-08 15:14 39.64211 -106.90662 6547 ft 8 kts 76°
2026-05-08 15:14 39.64248 -106.90638 6546 ft 6 kts 356°
2026-05-08 15:15 39.64275 -106.90601 6546 ft 7 kts 81°
2026-05-08 15:15 39.64287 -106.90495 6547 ft 13 kts 82°
2026-05-08 15:15 39.64300 -106.90376 6546 ft 13 kts 82°
2026-05-08 15:15 39.64313 -106.90255 6546 ft 13 kts 81°
2026-05-08 15:16 39.64327 -106.90130 6546 ft 14 kts 82°
2026-05-08 15:16 39.64357 -106.90024 6547 ft 11 kts 33°
2026-05-08 15:16 39.64427 -106.90037 6546 ft 10 kts 316°
2026-05-08 15:16 39.64443 -106.90091 6547 ft 0 kts 262°
2026-05-08 15:17 39.64405 -106.90443 6547 ft 89 kts 258°
2026-05-08 15:17 39.64277 -106.91605 6558 ft 166 kts 263°
2026-05-08 15:18 39.64142 -106.93250 7219 ft 200 kts 265°
2026-05-08 15:18 39.63656 -106.94873 8510 ft 206 kts 228°
2026-05-08 15:18 39.62416 -106.95824 9629 ft 222 kts 204°
2026-05-08 15:18 39.60963 -106.96689 10498 ft 242 kts 209°
2026-05-08 15:19 39.59414 -106.97702 11327 ft 262 kts 213°
2026-05-08 15:19 39.58190 -106.99400 12328 ft 263 kts 250°
2026-05-08 15:19 39.57969 -107.01640 13548 ft 257 kts 277°
2026-05-08 15:19 39.58081 -107.03938 14735 ft 258 kts 275°
2026-05-08 15:20 39.58341 -107.06198 15740 ft 259 kts 296°
2026-05-08 15:20 39.59456 -107.08070 15997 ft 269 kts 321°
2026-05-08 15:20 39.60894 -107.09646 16475 ft 274 kts 316°
2026-05-08 15:20 39.62418 -107.10960 17679 ft 270 kts 342°
2026-05-08 15:21 39.64221 -107.11121 18959 ft 264 kts 353°
2026-05-08 15:21 39.65990 -107.11823 19383 ft 281 kts 327°
2026-05-08 15:21 39.67339 -107.13847 19502 ft 318 kts 299°
2026-05-08 15:21 39.67800 -107.16760 20079 ft 343 kts 278°
2026-05-08 15:22 39.67831 -107.19836 20980 ft 352 kts 270°
2026-05-08 15:22 39.66988 -107.22916 21861 ft 370 kts 249°
2026-05-08 15:22 39.65787 -107.25950 22697 ft 377 kts 248°
2026-05-08 15:22 39.64149 -107.28707 23464 ft 391 kts 237°
2026-05-08 15:23 39.62396 -107.31381 24256 ft 395 kts 237°
2026-05-08 15:23 39.60599 -107.34116 24996 ft 400 kts 237°
2026-05-08 15:23 39.58792 -107.36877 25776 ft 403 kts 237°
2026-05-08 15:23 39.56983 -107.39668 26468 ft 408 kts 237°
2026-05-08 15:24 39.55161 -107.42488 27158 ft 412 kts 237°
2026-05-08 15:24 39.53330 -107.45332 27798 ft 417 kts 237°
2026-05-08 15:24 39.51469 -107.48205 28454 ft 420 kts 237°
2026-05-08 15:24 39.49586 -107.51121 29069 ft 424 kts 237°
2026-05-08 15:25 39.47690 -107.54069 29687 ft 428 kts 237°
2026-05-08 15:25 39.45797 -107.57020 30276 ft 431 kts 237°
2026-05-08 15:25 39.43890 -107.60049 30802 ft 432 kts 241°
2026-05-08 15:25 39.42553 -107.63454 31387 ft 422 kts 255°
2026-05-08 15:26 39.41410 -107.67063 31948 ft 426 kts 254°
2026-05-08 15:26 39.40286 -107.70674 32443 ft 430 kts 255°
2026-05-08 15:26 39.39176 -107.74249 32969 ft 433 kts 255°
2026-05-08 15:26 39.38027 -107.77948 33521 ft 435 kts 255°
2026-05-08 15:27 39.36871 -107.81669 33987 ft 439 kts 255°
2026-05-08 15:27 39.35696 -107.85438 34557 ft 442 kts 255°
2026-05-08 15:27 39.34518 -107.89210 35219 ft 443 kts 255°
2026-05-08 15:27 39.33349 -107.92960 35995 ft 441 kts 255°
2026-05-08 15:28 39.32200 -107.96630 36714 ft 440 kts 255°
2026-05-08 15:28 39.31063 -108.00246 37533 ft 437 kts 255°
2026-05-08 15:28 39.29911 -108.03928 38185 ft 436 kts 256°
2026-05-08 15:28 39.28759 -108.07607 38783 ft 436 kts 255°
2026-05-08 15:29 39.27625 -108.11212 39450 ft 435 kts 256°
2026-05-08 15:29 39.26474 -108.14867 40046 ft 434 kts 255°
2026-05-08 15:29 39.25332 -108.18489 40651 ft 432 kts 255°
2026-05-08 15:29 39.24205 -108.22072 41151 ft 431 kts 255°
2026-05-08 15:30 39.23068 -108.25670 41514 ft 432 kts 255°
2026-05-08 15:30 39.21943 -108.29236 41922 ft 433 kts 255°
2026-05-08 15:30 39.20804 -108.32832 42346 ft 433 kts 254°
2026-05-08 15:30 39.19655 -108.36437 42711 ft 433 kts 254°
2026-05-08 15:31 39.18528 -108.39990 43088 ft 432 kts 254°
2026-05-08 15:31 39.17388 -108.43578 43419 ft 432 kts 254°
2026-05-08 15:31 39.16246 -108.47159 43714 ft 432 kts 253°
2026-05-08 15:31 39.15112 -108.50720 44029 ft 432 kts 253°
2026-05-08 15:32 39.13961 -108.54309 44269 ft 432 kts 253°
2026-05-08 15:32 39.12822 -108.57878 44532 ft 433 kts 253°
2026-05-08 15:32 39.11680 -108.61442 44853 ft 433 kts 253°
2026-05-08 15:32 39.10545 -108.64987 45075 ft 434 kts 253°
2026-05-08 15:33 39.09378 -108.68619 45287 ft 435 kts 252°
2026-05-08 15:33 39.08219 -108.72223 45499 ft 435 kts 252°
2026-05-08 15:33 39.07062 -108.75826 45748 ft 436 kts 252°
2026-05-08 15:33 39.05610 -108.79295 45950 ft 446 kts 235°
2026-05-08 15:34 39.03344 -108.82111 46180 ft 453 kts 224°
2026-05-08 15:34 39.00931 -108.84699 46449 ft 452 kts 224°
2026-05-08 15:34 38.98526 -108.87319 46672 ft 452 kts 224°
2026-05-08 15:34 38.96124 -108.89922 46955 ft 451 kts 224°
2026-05-08 15:35 38.93713 -108.92534 47171 ft 451 kts 224°
2026-05-08 15:35 38.91285 -108.95159 47197 ft 456 kts 224°
2026-05-08 15:35 38.86360 -109.00482 47182 ft 467 kts 224°
2026-05-08 15:36 38.81311 -109.05927 47195 ft 476 kts 224°
2026-05-08 15:36 38.76155 -109.11481 47216 ft 487 kts 224°
2026-05-08 15:37 38.70923 -109.17099 47131 ft 496 kts 224°
2026-05-08 15:37 38.68263 -109.19954 47250 ft 500 kts 224°
2026-05-08 15:37 38.65504 -109.22910 47213 ft 502 kts 224°
2026-05-08 15:38 38.60128 -109.28660 47254 ft 509 kts 224°
2026-05-08 15:38 38.54588 -109.34578 47204 ft 513 kts 224°
2026-05-08 15:39 38.49020 -109.40511 47310 ft 516 kts 224°
2026-05-08 15:39 38.43484 -109.46396 47226 ft 516 kts 224°
2026-05-08 15:40 38.37951 -109.52264 47194 ft 517 kts 224°
2026-05-08 15:40 38.32352 -109.58195 47193 ft 518 kts 224°
2026-05-08 15:41 38.26791 -109.64069 47249 ft 517 kts 224°
2026-05-08 15:41 38.21208 -109.69959 47169 ft 518 kts 223°
2026-05-08 15:42 38.15648 -109.75807 47206 ft 517 kts 223°
2026-05-08 15:42 38.10089 -109.81548 47232 ft 519 kts 220°
2026-05-08 15:43 38.04262 -109.87158 47244 ft 520 kts 221°
2026-05-08 15:43 37.98440 -109.92783 47232 ft 519 kts 220°
2026-05-08 15:44 37.92691 -109.98322 47266 ft 518 kts 220°
2026-05-08 15:44 37.86938 -110.03854 47245 ft 518 kts 220°
2026-05-08 15:45 37.81195 -110.09362 47204 ft 518 kts 220°
2026-05-08 15:45 37.75271 -110.15037 47221 ft 518 kts 221°
2026-05-08 15:46 37.69381 -110.20669 47217 ft 517 kts 220°
2026-05-08 15:46 37.63651 -110.26134 47196 ft 517 kts 220°
2026-05-08 15:47 37.57897 -110.31612 47224 ft 517 kts 221°
2026-05-08 15:47 37.52145 -110.37077 47206 ft 517 kts 220°
2026-05-08 15:48 37.43590 -110.45184 46511 ft 507 kts 221°
2026-05-08 15:48 37.40795 -110.47829 45825 ft 496 kts 221°
2026-05-08 15:49 37.38060 -110.50409 45119 ft 488 kts 221°
2026-05-08 15:49 37.35359 -110.52961 44350 ft 485 kts 221°
2026-05-08 15:49 37.32659 -110.55507 43336 ft 486 kts 221°
2026-05-08 15:49 37.29957 -110.58056 42318 ft 487 kts 221°
2026-05-08 15:50 37.27238 -110.60618 41238 ft 489 kts 221°
2026-05-08 15:50 37.24515 -110.63177 40140 ft 491 kts 221°
2026-05-08 15:50 37.21753 -110.65779 38914 ft 493 kts 221°
2026-05-08 15:50 37.18996 -110.68372 37650 ft 494 kts 221°
2026-05-08 15:51 37.16251 -110.70949 36347 ft 495 kts 220°
2026-05-08 15:51 37.13531 -110.73498 35318 ft 493 kts 220°
2026-05-08 15:51 37.10791 -110.76060 34484 ft 488 kts 220°
2026-05-08 15:51 37.08076 -110.78602 33772 ft 483 kts 220°
2026-05-08 15:52 37.05403 -110.81097 33180 ft 477 kts 220°
2026-05-08 15:52 37.02734 -110.83589 32540 ft 472 kts 220°
2026-05-08 15:52 37.00080 -110.86067 31884 ft 468 kts 219°
2026-05-08 15:52 36.97484 -110.88485 31288 ft 463 kts 219°
2026-05-08 15:53 36.94892 -110.90897 30734 ft 459 kts 219°
2026-05-08 15:53 36.92307 -110.93304 30260 ft 455 kts 219°
2026-05-08 15:53 36.89691 -110.95736 29746 ft 451 kts 219°
2026-05-08 15:53 36.87185 -110.98061 29275 ft 448 kts 219°
2026-05-08 15:54 36.84660 -111.00404 28845 ft 445 kts 219°
2026-05-08 15:54 36.82185 -111.02700 28444 ft 442 kts 219°
2026-05-08 15:54 36.79693 -111.05006 28013 ft 440 kts 219°
2026-05-08 15:54 36.77270 -111.07252 27599 ft 437 kts 219°
2026-05-08 15:55 36.74831 -111.09507 27223 ft 434 kts 219°
2026-05-08 15:55 36.70033 -111.13940 26502 ft 429 kts 220°
2026-05-08 15:55 36.67637 -111.16151 26173 ft 426 kts 220°
2026-05-08 15:56 36.65258 -111.18346 25780 ft 425 kts 220°
2026-05-08 15:56 36.62909 -111.20512 25413 ft 422 kts 220°
2026-05-08 15:56 36.60542 -111.22690 25049 ft 420 kts 220°
2026-05-08 15:56 36.58201 -111.24844 24716 ft 418 kts 220°
2026-05-08 15:57 36.55896 -111.26966 24370 ft 416 kts 220°
2026-05-08 15:57 36.53561 -111.29103 24058 ft 413 kts 220°
2026-05-08 15:57 36.51286 -111.31196 23715 ft 411 kts 220°
2026-05-08 15:57 36.48976 -111.33315 23341 ft 410 kts 220°
2026-05-08 15:58 36.46681 -111.35421 23014 ft 407 kts 220°
2026-05-08 15:58 36.44416 -111.37493 22712 ft 405 kts 220°
2026-05-08 15:58 36.42144 -111.39574 22375 ft 404 kts 220°
2026-05-08 15:58 36.39880 -111.41644 22066 ft 402 kts 220°
2026-05-08 15:59 36.37628 -111.43702 21637 ft 393 kts 220°
2026-05-08 15:59 36.35443 -111.45699 20798 ft 392 kts 220°
2026-05-08 15:59 36.33250 -111.47701 20003 ft 390 kts 219°
2026-05-08 15:59 36.31054 -111.49698 19303 ft 386 kts 219°
2026-05-08 16:00 36.28892 -111.51977 18549 ft 379 kts 236°
2026-05-08 16:00 36.27487 -111.54673 18241 ft 376 kts 240°
2026-05-08 16:00 36.26027 -111.57385 18143 ft 372 kts 240°
2026-05-08 16:00 36.24625 -111.60036 17995 ft 369 kts 240°
2026-05-08 16:01 36.23212 -111.62685 17646 ft 367 kts 240°
2026-05-08 16:01 36.21805 -111.65324 17300 ft 366 kts 239°
2026-05-08 16:01 36.20401 -111.67960 16990 ft 365 kts 239°
2026-05-08 16:01 36.18992 -111.70588 16710 ft 364 kts 239°
2026-05-08 16:02 36.17596 -111.73193 16440 ft 362 kts 239°
2026-05-08 16:02 36.16221 -111.75761 16106 ft 359 kts 239°
2026-05-08 16:02 36.14843 -111.78334 15715 ft 358 kts 239°
2026-05-08 16:02 36.13465 -111.80899 15369 ft 356 kts 239°
2026-05-08 16:03 36.12129 -111.83381 14855 ft 350 kts 239°
2026-05-08 16:03 36.10798 -111.85867 14086 ft 345 kts 239°
2026-05-08 16:03 36.09516 -111.88365 13265 ft 343 kts 243°
2026-05-08 16:03 36.08407 -111.90918 12594 ft 337 kts 244°
2026-05-08 16:04 36.07337 -111.93363 12510 ft 314 kts 244°
2026-05-08 16:04 36.06329 -111.95670 12188 ft 296 kts 244°
2026-05-08 16:04 36.05371 -111.97864 11559 ft 293 kts 244°
2026-05-08 16:04 36.04428 -112.00045 10830 ft 282 kts 246°
2026-05-08 16:05 36.03614 -112.02240 10275 ft 272 kts 249°
2026-05-08 16:05 36.02880 -112.04379 9735 ft 268 kts 250°
2026-05-08 16:05 36.02180 -112.06470 9167 ft 267 kts 250°
2026-05-08 16:05 36.01478 -112.08543 8632 ft 251 kts 245°
2026-05-08 16:06 36.00664 -112.10301 8059 ft 229 kts 239°
2026-05-08 16:06 35.99767 -112.11846 7727 ft 217 kts 232°
2026-05-08 16:06 35.98822 -112.13152 7642 ft 183 kts 227°
2026-05-08 16:06 35.97953 -112.14187 7490 ft 166 kts 224°
2026-05-08 16:07 35.97133 -112.15093 7323 ft 157 kts 222°
2026-05-08 16:07 35.96296 -112.15939 7251 ft 155 kts 218°
2026-05-08 16:07 35.95418 -112.16710 7198 ft 154 kts 214°
2026-05-08 16:07 35.94499 -112.17429 7072 ft 153 kts 211°
2026-05-08 16:08 35.93511 -112.17796 7107 ft 151 kts 165°
2026-05-08 16:08 35.93030 -112.16798 6987 ft 159 kts 57°
2026-05-08 16:08 35.93953 -112.16052 6674 ft 160 kts 40°
2026-05-08 16:08 35.94763 -112.15198 6561 ft 138 kts 40°
2026-05-08 16:09 35.95311 -112.14619 6588 ft 61 kts 40°
2026-05-08 16:09 35.95544 -112.14374 6598 ft 38 kts 41°
2026-05-08 16:09 35.95676 -112.14212 6603 ft 13 kts 81°
2026-05-08 16:09 35.95643 -112.14137 6604 ft 7 kts 119°
2026-05-08 16:10 35.95638 -112.14119 6605 ft 0 kts 91°
2026-05-08 16:10 35.95638 -112.14117 6605 ft 0 kts 89°
2026-05-08 16:10 35.95641 -112.14101 6605 ft 3 kts 71°
2026-05-08 16:10 35.95667 -112.14062 6606 ft 10 kts 42°
2026-05-08 16:11 35.95714 -112.14013 6608 ft 7 kts 40°
2026-05-08 16:11 35.95749 -112.13976 6609 ft 5 kts 41°
2026-05-08 16:11 35.95773 -112.13950 6610 ft 3 kts 40°
2026-05-08 16:11 35.95786 -112.13934 6611 ft 3 kts 67°
2026-05-08 16:12 35.95766 -112.13890 6611 ft 5 kts 131°
2026-05-08 16:12 35.95763 -112.13886 6611 ft 0 kts 131°